Weather in Dickwella

Sri Lanka     5°58′11″N   80°41′09″E
temp.,
°C
wind,
m/s
gust,
m/s
humid.,
%
clouds,
%
prec.,
mm/h
press.,
hPa
HPBL,
m
17 may, mon
mon1723:30+26w368879 0.0 1009222
02:30+25w359066 0.2 1007152
05:30+26w35905 0.2 1008200
08:30+29w36736 0.0 1010634
11:30+33wsw5659100 0.0 10081239
14:30+33wsw7759100 0.0 10061299
17:30+30w697217 0.2 1006709
20:30+27w498418 0.3 1009407
18 may, tue
tue1823:30+26w368896 0.3 1009272
02:30+26w3691100 0.0 1007277
05:30+25w369242 0.1 1008293
08:30+30w467132 0.0 1010865
11:30+33sw665813 0.0 10091285
14:30+32sw886296 0.0 10061310
17:30+29wsw68735 0.0 1007861
20:30+27w498548 0.0 1009509
19 may, wed
wed1923:30+26w3890100 0.0 1009383
02:30+26w4892100 0.1 1008370
05:30+25w369146 0.2 1009330
08:30+29w467399 0.0 1010809
11:30+31wsw676296 0.0 10091288
14:30+31wsw786484 0.0 10061115
17:30+29wsw6873100 0.0 1007886
20:30+27w4886100 0.0 1010457
20 may, thu
thu2023:30+26w478898 0.1 1010396
02:30+26w4790100 0.1 1008375
05:30+26w4890100 0.2 1009422
08:30+29w577398 0.2 1010947
11:30+31wsw676226 0.3 10101370
14:30+31wsw786235 0.0 10071338
17:30+28wsw587874 0.3 1008750
20:30+26w4887100 0.1 1010481
21 may, fri
fri2123:30+26w4789100 0.3 1010420
02:30+26w488998 0.1 1008501
05:30+26w4890100 0.4 1009442
08:30+29w687337 0.6 10111000
11:30+31wsw696333 0.8 10101358
14:30+31wsw7963100 0.1 10081299
17:30+29w5875100 0.2 1009912
20:30+26w4885100 0.1 1010494